When you browse on this site, cookies collect data to enhance your experience and personalize the content and advertising you see.
Visit our Privacy Policy to learn more. By continuing to use the site, you agree to this use of cookies and data.
  • In Switzerland
  • List of Countries
  • For 7 days
  • Water Temperature
  • Weather Map
  • Weather Widgets
  • user-avatar
    Login

    Hourly Weather Winchester

    Today, 7 June, Sunday

    Time Temperature Precipitation Wind Pressure Humidity
    00:00 +7°C° 0 mm 3 mps 747 mmHg 94%
    01:00 +7°C° 0 mm 3 mps 748 mmHg 94%
    02:00 +7°C° 0 mm 3 mps 748 mmHg 94%
    03:00 +6°C° 0 mm 2 mps 748 mmHg 94%
    04:00 +7°C° 0 mm 2 mps 748 mmHg 92%
    05:00 +9°C° 0 mm 1 mps 749 mmHg 91%
    06:00 +10°C° 0 mm 1 mps 749 mmHg 89%
    07:00 +12°C° 0 mm 1 mps 750 mmHg 83%
    08:00 +13°C° 0 mm 2 mps 750 mmHg 76%
    09:00 +15°C° 0 mm 2 mps 750 mmHg 70%
    10:00 +16°C° 0 mm 2 mps 751 mmHg 65%
    11:00 +17°C° 0 mm 2 mps 751 mmHg 61%
    12:00 +18°C° 0 mm 3 mps 752 mmHg 57%
    13:00 +18°C° 0.2 mm 3 mps 752 mmHg 61%
    14:00 +18°C° 0.2 mm 3 mps 752 mmHg 65%
    15:00 +17°C° 0.2 mm 4 mps 752 mmHg 69%
    16:00 +17°C° 0.5 mm 4 mps 752 mmHg 74%
    17:00 +15°C° 0.5 mm 4 mps 752 mmHg 79%
    18:00 +14°C° 0.5 mm 4 mps 753 mmHg 84%
    19:00 +13°C° 0.1 mm 4 mps 753 mmHg 87%
    20:00 +11°C° 0.1 mm 4 mps 754 mmHg 90%
    21:00 +10°C° 0.1 mm 4 mps 755 mmHg 94%
    22:00 +10°C° 0 mm 4 mps 755 mmHg 94%
    23:00 +9°C° 0 mm 3 mps 755 mmHg 94%

    Tomorrow, 8 June, Monday

    Time Temperature Precipitation Wind Pressure Humidity
    00:00 +9°C° 0 mm 3 mps 755 mmHg 94%
    01:00 +8°C° 0 mm 3 mps 756 mmHg 95%
    02:00 +8°C° 0 mm 3 mps 756 mmHg 95%
    03:00 +7°C° 0 mm 3 mps 756 mmHg 96%
    04:00 +7°C° 0 mm 4 mps 756 mmHg 94%
    05:00 +7°C° 0 mm 4 mps 756 mmHg 93%
    06:00 +8°C° 0 mm 4 mps 757 mmHg 92%
    07:00 +10°C° 0 mm 4 mps 757 mmHg 84%
    08:00 +12°C° 0 mm 4 mps 758 mmHg 77%
    09:00 +13°C° 0 mm 4 mps 758 mmHg 70%
    10:00 +14°C° 0 mm 4 mps 758 mmHg 65%
    11:00 +15°C° 0 mm 4 mps 758 mmHg 60%
    12:00 +17°C° 0 mm 4 mps 758 mmHg 56%
    13:00 +17°C° 0 mm 4 mps 758 mmHg 57%
    14:00 +17°C° 0 mm 4 mps 758 mmHg 57%
    15:00 +16°C° 0 mm 5 mps 758 mmHg 58%
    16:00 +17°C° 0 mm 4 mps 758 mmHg 61%
    17:00 +15°C° 0 mm 4 mps 758 mmHg 64%
    18:00 +15°C° 0 mm 4 mps 758 mmHg 67%
    19:00 +13°C° 0 mm 4 mps 758 mmHg 71%
    20:00 +11°C° 0 mm 3 mps 759 mmHg 75%
    21:00 +10°C° 0 mm 3 mps 759 mmHg 79%
    22:00 +9°C° 0 mm 2 mps 759 mmHg 79%
    23:00 +8°C° 0 mm 2 mps 759 mmHg 79%

    Day after tomorrow, 9 June, Tuesday

    Time Temperature Precipitation Wind Pressure Humidity
    00:00 +8°C° 0 mm 2 mps 759 mmHg 79%
    01:00 +8°C° 0 mm 2 mps 759 mmHg 77%
    02:00 +9°C° 0 mm 1 mps 759 mmHg 76%
    03:00 +10°C° 0 mm 1 mps 759 mmHg 75%
    04:00 +10°C° 0 mm 1 mps 759 mmHg 74%
    05:00 +10°C° 0 mm 1 mps 759 mmHg 74%
    06:00 +11°C° 0 mm 1 mps 759 mmHg 73%
    07:00 +12°C° 0 mm 1 mps 759 mmHg 69%
    08:00 +13°C° 0 mm 1 mps 759 mmHg 66%
    09:00 +14°C° 0 mm 1 mps 760 mmHg 62%
    10:00 +15°C° 0 mm 1 mps 760 mmHg 62%
    11:00 +15°C° 0 mm 1 mps 759 mmHg 63%
    12:00 +15°C° 0 mm 1 mps 759 mmHg 64%
    13:00 +15°C° 0 mm 2 mps 759 mmHg 64%
    14:00 +16°C° 0 mm 2 mps 759 mmHg 64%
    15:00 +16°C° 0 mm 2 mps 759 mmHg 64%
    16:00 +16°C° 0 mm 3 mps 758 mmHg 67%
    17:00 +14°C° 0 mm 3 mps 758 mmHg 70%
    18:00 +14°C° 0 mm 3 mps 758 mmHg 73%
    19:00 +13°C° 0 mm 3 mps 758 mmHg 76%
    20:00 +12°C° 0 mm 3 mps 758 mmHg 79%
    21:00 +12°C° 0 mm 2 mps 758 mmHg 82%
    22:00 +12°C° 0 mm 2 mps 758 mmHg 84%
    23:00 +12°C° 0 mm 2 mps 758 mmHg 86%

    10 June, Wednesday

    Time Temperature Precipitation Wind Pressure Humidity
    00:00 +12°C° 0 mm 2 mps 758 mmHg 88%
    01:00 +10°C° 0 mm 2 mps 757 mmHg 90%
    02:00 +10°C° 0 mm 2 mps 757 mmHg 91%
    03:00 +11°C° 0 mm 1 mps 757 mmHg 93%
    04:00 +12°C° 0.1 mm 1 mps 757 mmHg 92%
    05:00 +12°C° 0.1 mm 1 mps 757 mmHg 91%
    06:00 +12°C° 0.1 mm 1 mps 757 mmHg 90%
    07:00 +13°C° 0.3 mm 2 mps 756 mmHg 87%
    08:00 +14°C° 0.3 mm 2 mps 756 mmHg 84%
    09:00 +15°C° 0.3 mm 2 mps 756 mmHg 81%
    10:00 +15°C° 0.4 mm 2 mps 756 mmHg 80%
    11:00 +14°C° 0.4 mm 3 mps 756 mmHg 78%
    12:00 +14°C° 0.4 mm 3 mps 756 mmHg 77%
    13:00 +14°C° 0.3 mm 3 mps 756 mmHg 76%
    14:00 +14°C° 0.3 mm 3 mps 755 mmHg 76%
    15:00 +14°C° 0.3 mm 3 mps 755 mmHg 75%
    16:00 +14°C° 0.1 mm 3 mps 754 mmHg 75%
    17:00 +14°C° 0.1 mm 3 mps 754 mmHg 75%
    18:00 +13°C° 0.1 mm 3 mps 754 mmHg 75%
    19:00 +12°C° 0 mm 3 mps 754 mmHg 80%
    20:00 +11°C° 0 mm 3 mps 753 mmHg 86%
    21:00 +9°C° 0 mm 2 mps 753 mmHg 91%
    22:00 +9°C° 0 mm 2 mps 753 mmHg 92%
    23:00 +9°C° 0 mm 3 mps 752 mmHg 93%

    11 June, Thursday

    Time Temperature Precipitation Wind Pressure Humidity
    00:00 +9°C° 0 mm 3 mps 752 mmHg 95%
    01:00 +9°C° 0.9 mm 3 mps 752 mmHg 95%
    02:00 +10°C° 0.9 mm 3 mps 751 mmHg 95%
    03:00 +10°C° 0.9 mm 4 mps 751 mmHg 96%
    04:00 +10°C° 0.5 mm 4 mps 751 mmHg 96%
    05:00 +10°C° 0.5 mm 4 mps 751 mmHg 95%
    06:00 +10°C° 0.5 mm 4 mps 751 mmHg 95%
    07:00 +11°C° 0.2 mm 4 mps 751 mmHg 94%
    08:00 +10°C° 0.2 mm 5 mps 750 mmHg 92%
    09:00 +11°C° 0.2 mm 6 mps 750 mmHg 91%
    10:00 +13°C° 0.4 mm 6 mps 750 mmHg 88%
    11:00 +14°C° 0.4 mm 7 mps 750 mmHg 85%
    12:00 +15°C° 0.4 mm 7 mps 749 mmHg 83%
    13:00 +15°C° 0.5 mm 7 mps 749 mmHg 80%
    14:00 +16°C° 0.5 mm 7 mps 748 mmHg 78%
    15:00 +16°C° 0.5 mm 8 mps 748 mmHg 76%
    16:00 +15°C° 0.7 mm 7 mps 747 mmHg 81%
    17:00 +14°C° 0.7 mm 7 mps 747 mmHg 85%
    18:00 +13°C° 0.7 mm 6 mps 747 mmHg 90%
    19:00 +13°C° 0.4 mm 6 mps 747 mmHg 91%
    20:00 +13°C° 0.4 mm 6 mps 747 mmHg 92%
    21:00 +13°C° 0.4 mm 6 mps 747 mmHg 93%
    22:00 +13°C° 0.2 mm 6 mps 747 mmHg 94%
    23:00 +13°C° 0.2 mm 6 mps 746 mmHg 94%

    12 June, Friday

    Time Temperature Precipitation Wind Pressure Humidity
    00:00 +13°C° 0.2 mm 6 mps 746 mmHg 95%
    01:00 +13°C° 0.3 mm 6 mps 745 mmHg 95%
    02:00 +13°C° 0.3 mm 6 mps 745 mmHg 95%
    03:00 +13°C° 0.3 mm 6 mps 745 mmHg 95%
    04:00 +13°C° 1.9 mm 6 mps 745 mmHg 95%
    05:00 +12°C° 1.9 mm 5 mps 745 mmHg 96%
    06:00 +12°C° 1.9 mm 4 mps 745 mmHg 96%
    07:00 +11°C° 2.5 mm 3 mps 745 mmHg 96%
    08:00 +12°C° 2.5 mm 2 mps 746 mmHg 96%
    09:00 +11°C° 2.5 mm 1 mps 746 mmHg 96%
    10:00 +13°C° 0.3 mm 2 mps 746 mmHg 89%
    11:00 +13°C° 0.3 mm 3 mps 746 mmHg 83%
    12:00 +14°C° 0.3 mm 3 mps 746 mmHg 77%
    13:00 +15°C° 0 mm 4 mps 746 mmHg 72%
    14:00 +17°C° 0 mm 4 mps 746 mmHg 67%
    15:00 +18°C° 0 mm 4 mps 746 mmHg 63%
    16:00 +18°C° 0 mm 4 mps 747 mmHg 65%
    17:00 +17°C° 0 mm 4 mps 747 mmHg 67%
    18:00 +17°C° 0 mm 3 mps 747 mmHg 69%
    19:00 +15°C° 0 mm 4 mps 747 mmHg 74%
    20:00 +14°C° 0 mm 4 mps 747 mmHg 78%
    21:00 +12°C° 0 mm 5 mps 747 mmHg 82%
    22:00 +12°C° 0 mm 5 mps 747 mmHg 83%
    23:00 +12°C° 0 mm 5 mps 748 mmHg 84%
    Show more